Other Surface Observations
Issued by NWS Tucson, AZ

Home | Current Version | Previous Version | Text Only | Print | Product List | Glossary On
Versions: 1 2 3 4 5 6 7 8 9 10 11 12 13 14 15 16 17 18 19 20 21 22 23 24 25 26 27 28 29 30 31 32 33 34 35 36 37 38 39 40 41 42 43 44 45 46 47 48 49 50
000
SXUS55 KTWC 240416
OSOTWC

WEATHER ROUNDUP FOR SOUTHEAST ARIZONA
NATIONAL WEATHER SERVICE TUCSON AZ
915 PM MST WED JUL 23 2014

AZZ504>506-514-240515-
LOCATION       SKY/WX    TMP DP  RH WIND       PRES   REMARKS
TUCSON         CLOUDY    87  63  44 NW3       30.02R
DAVIS-MONTHAN  CLOUDY    88  62  42 W9        30.01R
CHILDRENS PARK N/A       96  57  27 NE2               PIMA CO DEQ
ALVERNON/22ND  N/A      N/A N/A N/A N/A               PIMA CO DEQ
CHERRY/GLENN   N/A      N/A N/A N/A N/A               PIMA CO DEQ
TANGERINE      N/A       91 N/A N/A NW2               PIMA CO DEQ
CONTL RANCH    N/A       94  62  35 SE6               PIMA CO DEQ
GRANT/1ST      N/A       95  57  28 E7                PIMA CO DEQ
CRAYCROFT/22ND N/A      N/A N/A N/A N/A               PIMA CO DEQ
GOLFLINKS/KOLB N/A      N/A N/A N/A N/A               PIMA CO DEQ
AJO/12TH       N/A       93  56  29 W6                PIMA CO DEQ
SAGUARO EAST   N/A      N/A N/A N/A N/A               PIMA CO DEQ
FAIRGROUNDS    N/A       94 N/A N/A E15               PIMA CO DEQ
SAGUARO        N/A       96  56  26 NE13G26           *SABINO CYN
SAN CARLOS     N/A       93  58  31 S5G13             *SAN CARLOS
GREEN VALLEY   N/A       87  60  41 W10               PIMA CO DEQ
HORSE CAMP CYN N/A       88  54  32 E12G24            *ARAVAIPA CYN
RINCON MTNS    N/A       66  52  60 E6G16             *NR MANNING CAMP
$$

AZZ509>511-240515-
LOCATION       SKY/WX    TMP DP  RH WIND       PRES   REMARKS
SAFFORD        MOCLDY    87  59  38 E10       30.05R
STRAY HORSE    N/A       66  47  51 NE2               *
TRAIL CABIN    N/A       71  55  56 SE4               *N OF GRANVILLE
BLACK HILLS    N/A       91  53  28 E6G12             *N OF FT THOMAS
DRY LAKE       N/A       65  54  68 E3                *NATANES MTNS
NOON CREEK     N/A       79  56  46 SW2               *PINALENO MTNS
COLUMBINE      N/A       60  44  55 SE2G10            *PINALENO MTNS
GUTHRIE        N/A       74  50  43 NE9G12            *SW OF GUTHRIE
$$

AZZ502-503-513-240515-
LOCATION       SKY/WX    TMP DP  RH WIND       PRES   REMARKS
NOGALES        NOT AVBL
SELLS          N/A       91  60  35 SE8G17            *
SASABE         N/A       82  64  55 S4G16             *ALTAR VLY
HOPKINS        N/A       75  48  38 E16G29            *SANTA RITA MTNS
CARR CYN       N/A       76  49  39 SW2               *W OF HEREFORD
$$

AZZ507-508-512-240515-
LOCATION       SKY/WX    TMP DP  RH WIND       PRES   REMARKS
SIERRA VISTA   PTCLDY    82  55  39 CALM      30.18R
DOUGLAS        CLEAR     82  51  34 E8        30.13R
EMPIRE MTNS    N/A       81  55  41 W5G12             *LAS CIENEGAS NCA
MULESHOE RANCH N/A       84  53  35 E8G19             *PRESERVE
HEADQUARTERS   N/A       72  55  55 E3                *CHIRICAHUA MTNS
$$

.............................NOTES.............................
THIS IS AN AUTOMATED COLLECTIVE WITH MINIMAL QUALITY CONTROL.
PIMA CO DEQ SITES HAVE NONSTANDARD WIND SENSOR HEIGHTS.
PIMA CO DEQ SITES DO NOT REPORT WIND GUSTS.
* INDICATES WIND SENSORS LOCATED AT 20 FEET INSTEAD OF 33 FEET.
..............................KEY..............................
SKY/WX - SKY CONDITION/WEATHER
TMP    - TEMPERATURE IN FAHRENHEIT
DP     - DEWPOINT IN FAHRENHEIT
RH     - RELATIVE HUMIDITY IN PERCENT
WIND   - DIRECTION AND SPEED IN MILES PER HOUR (MPH)
VRB    - VARIABLE WIND DIRECTION
PRES   - MEAN SEA LEVEL PRESSURE IN INCHES OF MERCURY
         F - FALLING PRESSURE   R - RISING PRESSURE
         S - STEADY PRESSURE
VSB    - VISIBILITY IN MILES
HX     - HEAT INDEX IN FAHRENHEIT
WCI    - WIND CHILL INDEX IN FAHRENHEIT
N/A    - NOT AVAILABLE
AFB    - AIR FORCE BASE
         DAVIS-MONTHAN IS DAVIS-MONTHAN AIR FORCE BASE
CYN    - CANYON
MTNS   - MOUNTAINS
NCA    - NATIONAL CONSERVATION AREA
NR     - NEAR
VLY    - VALLEY
CONTL  - CONTINENTAL
PIMA CO DEQ - PIMA COUNTY DEPT OF ENVIRONMENTAL QUALITY



USA.gov is the U.S. government's official web portal to all federal, state and local government web resources and services.